ECMWFNIL_925_temp_057.txt.gz
Temp
16 15 14 15 15 15 15 15 15 15 15 15 15 16 16 16 16 16 17 17 17 17 17 17 17 17 17 17 17 17 17 17 17 17 17 17 17 17 17 17 17 17
15 14 14 15 15 15 15 15 15 15 15 15 14 15 16 16 15 16 17 17 17 17 17 17 17 16 16 16 17 17 17 17 17 17 17 17 17 17 17 17 17 17
15 14 14 15 15 15 15 15 15 15 16 16 15 15 17 17 16 16 16 16 17 17 17 17 17 17 17 17 17 17 17 17 17 17 17 16 16 17 17 17 17 17
16 14 14 15 15 15 15 15 15 15 16 16 15 16 17 17 17 17 17 16 17 17 16 16 17 17 17 17 17 17 17 18 17 17 17 16 16 17 17 17 17 17
15 14 15 15 15 15 15 15 15 15 16 16 16 16 17 17 17 17 17 17 17 17 17 16 16 17 17 17 17 17 17 17 17 17 16 16 16 17 17 17 17 17
14 14 15 15 16 15 15 15 15 15 16 16 16 16 17 17 17 17 18 17 17 17 17 16 17 17 17 17 17 17 17 17 17 17 16 17 17 17 17 17 17 17
14 14 15 15 15 15 15 16 16 16 16 17 17 17 17 17 17 17 18 17 16 16 17 17 17 17 16 16 17 17 17 17 17 17 17 17 17 17 17 17 17 17
14 14 15 15 15 15 15 16 16 16 16 17 17 17 17 17 17 17 17 16 16 17 17 17 17 17 16 16 17 17 17 17 17 17 17 17 16 17 17 17 17 17
14 14 15 15 15 15 15 15 16 16 16 17 17 17 18 18 17 17 17 16 15 17 17 17 17 17 17 17 17 17 17 17 17 17 17 16 16 16 17 17 17 17
14 14 14 15 14 15 15 15 16 16 16 16 17 17 17 17 17 17 16 16 16 17 17 17 17 17 17 17 17 17 17 17 17 17 17 17 16 16 16 16 16 17
14 14 14 14 14 14 15 15 15 16 16 16 16 16 16 16 16 16 16 16 17 17 17 17 17 17 17 17 17 17 17 17 17 17 17 17 17 17 16 16 16 17
14 14 14 14 14 14 14 14 14 14 15 15 16 16 15 17 16 15 15 17 17 17 17 17 17 17 17 17 17 17 17 17 17 17 17 17 17 17 16 16 17 17
14 14 14 14 14 14 14 14 14 14 14 15 16 15 14 15 16 15 15 16 17 17 17 17 17 17 17 17 17 17 17 17 17 17 17 17 17 17 17 17 17 17
13 14 14 14 14 14 14 14 15 15 14 15 16 15 15 14 15 16 16 16 16 17 17 17 17 17 17 17 17 17 17 17 17 17 17 17 17 17 17 17 17 17
12 13 13 14 14 14 14 14 15 15 15 15 15 16 16 15 15 16 17 16 16 17 17 17 17 17 17 17 17 17 17 17 17 17 17 17 17 17 17 17 17 17
11 12 13 13 14 14 14 14 14 15 15 15 15 15 16 16 15 16 16 16 17 17 17 17 17 17 17 17 17 17 17 17 17 17 17 17 17 17 17 17 17 17
10 10 11 13 14 14 14 14 15 15 15 15 15 15 16 16 16 16 16 16 17 17 17 17 17 17 17 17 17 17 17 17 17 17 17 17 17 17 17 17 17 17
9 10 10 12 13 14 14 14 15 15 15 15 16 15 15 15 16 16 15 16 17 17 17 17 17 17 17 17 17 17 17 17 17 17 17 17 17 17 17 18 17 17
9 10 10 11 12 13 14 14 14 15 15 15 15 14 14 14 15 15 15 16 16 16 16 16 16 17 17 17 17 17 17 17 17 17 17 17 17 17 17 17 17 17
8 9 10 10 11 13 13 13 14 15 14 14 14 14 13 14 14 15 15 15 16 16 16 16 16 16 17 17 17 17 17 17 17 18 17 17 18 17 17 17 16 17
7 8 9 9 10 12 12 13 14 14 13 13 13 13 13 13 14 14 15 15 15 15 15 15 16 16 16 17 17 17 17 17 18 17 17 17 17 16 16 15 15 16
6 7 8 9 8 9 11 13 13 13 12 12 12 12 11 12 12 13 14 14 14 14 15 15 15 16 16 17 17 17 17 17 17 17 17 16 16 15 14 14 14 15
6 7 8 8 8 8 8 10 11 12 12 12 11 10 10 10 11 11 13 13 13 14 14 15 15 15 15 16 17 17 17 17 17 16 16 15 14 14 14 14 14 14
7 6 7 8 8 7 6 7 9 10 11 11 10 10 9 9 9 10 11 12 13 13 14 14 14 14 15 16 16 16 17 17 16 16 14 14 13 13 13 13 13 13
7 7 7 7 8 8 7 6 6 7 8 9 9 9 8 8 8 9 10 11 11 12 13 13 13 13 14 15 15 15 16 16 16 15 14 12 12 12 12 13 13 13
8 8 7 7 7 8 7 6 5 5 5 6 7 7 8 7 7 8 9 9 10 11 11 11 12 11 12 13 14 14 15 15 15 15 13 12 12 12 12 12 12 12

ECMWFNIL_925_temp_060.txt.gz
Temp
16 16 16 16 15 15 15 15 15 15 15 15 15 15 15 14 15 15 15 16 16 16 17 17 17 17 15 15 15 15 15 15 16 17 17 16 17 17 17 17 16 17
15 15 15 15 15 15 15 15 15 15 14 15 14 14 15 15 14 15 15 16 16 15 16 17 17 16 15 15 16 16 16 15 15 16 17 16 17 17 17 17 16 17
14 14 14 14 14 14 15 15 15 15 15 15 15 14 14 15 15 15 16 17 16 16 16 16 16 15 15 16 16 16 16 15 15 16 17 16 17 17 17 16 16 16
14 14 14 14 14 14 14 15 15 15 15 15 15 14 14 15 15 15 16 17 17 16 16 16 15 15 16 16 16 16 16 16 16 17 16 16 17 16 17 17 16 16
14 14 14 14 14 14 14 14 15 15 15 15 15 14 14 15 15 15 16 16 16 16 16 16 15 15 16 16 16 16 16 16 16 17 16 16 17 17 17 17 16 16
14 14 14 14 14 14 14 14 15 15 15 15 15 14 14 15 15 16 16 16 16 15 15 16 15 15 16 16 16 16 16 16 16 17 17 17 17 17 16 16 17 16
14 14 14 14 14 14 14 14 14 15 15 15 15 15 14 15 16 16 16 16 16 15 15 16 16 16 16 16 16 16 16 16 17 17 17 17 17 17 16 16 16 16
14 14 14 14 14 14 14 14 14 14 15 15 15 15 15 15 16 17 17 17 16 16 16 16 16 16 16 16 16 16 16 16 16 17 17 16 17 17 17 17 16 16
14 14 14 14 14 14 14 14 14 14 14 15 15 15 15 15 16 16 16 17 17 17 17 17 16 16 16 16 16 16 16 16 16 16 16 16 16 17 17 16 16 16
13 14 14 15 15 15 15 14 14 14 15 15 15 14 15 15 15 16 16 17 17 17 17 17 17 16 16 16 16 16 16 16 16 16 16 17 17 16 16 16 16 16
12 13 14 14 15 15 15 14 14 15 15 15 14 14 15 15 15 15 16 16 17 17 17 17 17 17 16 16 16 16 16 16 16 16 16 17 17 16 16 16 16 16
11 12 12 13 14 15 15 14 14 14 14 15 14 14 14 14 14 15 15 16 16 17 17 17 17 17 16 16 17 16 16 15 16 16 16 17 16 16 16 16 16 16
11 11 11 12 13 14 14 14 14 14 14 14 14 14 14 14 14 15 15 15 15 16 17 17 17 17 16 16 17 16 16 16 16 16 16 16 16 16 16 16 16 16
9 10 11 11 12 13 14 14 14 14 14 14 14 14 14 14 15 16 16 16 15 15 16 17 17 16 16 16 17 17 16 16 16 16 16 16 16 16 16 16 16 16
8 9 10 11 12 12 13 14 14 14 14 14 14 14 14 14 15 16 16 16 15 15 16 17 16 16 16 16 17 17 16 16 16 16 16 16 16 16 16 16 16 16
7 8 9 10 11 11 12 13 14 14 13 14 13 14 14 15 15 15 16 16 16 15 15 16 16 16 16 17 17 17 17 17 16 16 16 16 16 16 16 16 16 16
6 7 8 10 10 11 12 12 13 14 13 13 13 13 14 15 15 15 16 16 16 16 15 16 16 16 16 16 16 17 17 17 17 16 17 16 16 16 16 16 16 16
6 6 7 8 10 11 11 12 13 13 13 13 13 13 14 15 16 16 16 16 16 16 16 15 16 16 16 16 16 17 17 17 17 17 17 17 17 17 16 16 16 16
6 6 6 7 8 10 11 12 13 13 13 13 13 14 14 15 16 16 16 16 16 16 16 15 16 16 17 17 16 16 16 16 17 17 17 17 16 16 16 16 16 16
6 6 6 7 7 8 10 11 12 13 13 13 13 13 14 14 15 15 15 15 15 16 16 16 16 17 17 17 17 16 16 16 16 17 17 16 16 16 16 16 16 16
6 6 6 6 7 8 8 9 10 11 12 13 13 13 13 13 14 14 14 14 15 15 15 16 16 17 17 17 17 16 16 16 16 16 16 16 16 16 16 16 16 16
5 5 6 6 6 7 7 7 8 8 9 10 11 12 12 12 13 13 13 14 14 14 15 15 16 17 17 17 16 16 16 16 16 16 16 15 15 16 16 16 15 15
5 5 5 5 5 6 6 6 6 6 6 7 8 9 10 11 11 11 12 12 13 13 14 15 16 16 16 16 16 16 16 16 15 15 15 15 14 14 14 14 14 14
5 5 5 5 5 5 5 6 6 5 5 5 5 6 6 8 9 10 10 10 11 11 12 14 15 15 15 15 15 15 16 16 15 15 14 14 13 13 13 13 14 14
6 5 5 5 5 5 5 5 6 5 5 5 4 4 4 5 6 7 8 8 9 9 10 11 13 13 13 14 14 14 15 15 15 15 14 13 12 12 12 13 13 13
7 6 5 5 5 5 5 5 5 6 6 5 4 4 4 4 4 5 6 6 7 7 7 8 9 10 11 12 12 13 14 14 15 15 14 12 12 12 12 12 12 13

ECMWFNIL_925_temp_063.txt.gz
Temp
14 14 14 14 14 14 14 15 15 15 15 15 15 15 15 15 15 15 14 14 14 14 15 15 15 15 15 15 15 14 15 15 15 15 15 15 15 15 15 15 15 16
14 14 14 14 14 14 14 14 14 14 14 15 15 15 15 15 15 15 15 14 14 14 14 14 15 14 14 15 15 15 15 15 15 15 15 15 15 15 15 15 16 16
14 14 14 14 14 14 14 14 14 14 14 14 14 14 14 14 15 15 14 14 14 14 14 14 15 15 14 14 15 15 15 15 15 15 15 15 15 15 15 15 16 17
14 14 14 14 14 14 14 14 14 14 14 14 14 15 14 14 14 14 14 14 14 14 14 14 15 15 15 14 15 15 15 15 14 14 15 15 15 15 15 15 16 16
13 14 14 14 14 14 14 14 14 14 14 14 14 15 14 14 14 14 14 14 14 14 15 15 15 15 14 15 15 15 15 15 14 14 15 15 15 15 15 15 15 15
13 13 14 14 14 14 14 14 14 14 14 14 14 14 14 14 14 14 14 14 14 14 14 15 15 14 14 14 14 15 15 15 14 14 14 15 15 15 15 15 15 14
12 13 13 14 14 14 14 14 14 14 14 14 14 14 14 14 14 14 14 14 14 14 14 15 15 15 15 14 14 14 15 14 14 14 14 14 14 14 14 15 15 14
12 12 13 13 14 14 14 14 14 14 14 14 14 14 14 14 14 14 14 14 14 14 15 15 15 15 15 14 14 14 14 15 14 14 14 14 14 14 14 14 14 15
11 12 12 12 13 14 14 14 14 14 14 14 14 14 14 14 14 14 14 14 14 15 15 15 15 15 14 14 14 14 15 15 14 14 14 14 14 14 14 14 15 15
9 10 12 12 12 13 13 14 14 14 14 14 14 14 14 14 14 14 14 14 14 14 15 15 15 15 14 14 14 14 15 15 14 14 14 14 15 15 15 15 15 15
8 9 9 11 12 12 12 13 13 14 14 14 14 14 14 14 14 14 14 14 14 15 15 14 14 15 14 14 14 14 15 14 14 14 14 15 15 15 15 15 15 15
8 8 8 9 10 11 12 12 13 13 14 14 14 14 14 14 14 14 14 14 14 15 15 14 14 15 14 14 14 14 14 14 14 14 14 15 15 15 15 15 15 16
8 8 8 8 9 10 11 12 12 13 13 14 14 14 14 14 14 14 14 14 14 14 14 14 14 14 15 15 15 14 14 14 14 14 15 15 15 15 15 15 15 15
7 7 8 8 8 8 9 11 11 12 13 13 14 14 14 14 14 14 14 14 14 14 15 15 14 14 15 15 15 14 14 15 15 15 15 15 15 15 15 15 15 15
7 7 7 8 8 8 8 9 10 11 12 13 13 14 14 14 14 14 14 14 14 14 14 15 15 15 15 15 15 15 15 15 15 15 15 15 15 15 14 14 15 15
7 7 7 7 7 8 8 8 9 11 12 13 13 13 14 14 14 14 14 14 14 14 14 15 16 16 16 16 16 16 16 15 15 15 15 15 15 15 15 14 15 16
7 7 7 7 7 7 7 8 9 10 11 12 13 13 13 14 14 14 14 14 14 14 14 15 16 16 16 16 16 17 16 16 15 15 15 15 15 15 15 14 14 15
6 6 6 7 7 6 6 7 8 10 11 12 12 13 13 13 14 14 14 14 14 14 15 16 16 16 16 16 16 16 16 16 16 16 16 16 16 15 15 15 15 15
6 6 6 6 6 6 6 6 7 9 10 11 12 13 13 13 13 14 14 14 14 14 15 16 16 16 16 16 16 16 16 16 16 16 16 16 16 16 16 15 15 15
6 6 6 6 6 6 6 5 6 7 9 9 10 11 12 13 13 13 13 13 13 13 14 15 16 16 16 16 16 16 16 16 16 16 16 16 16 16 16 16 16 16
6 6 6 6 6 6 5 5 5 6 7 8 8 8 9 10 11 12 12 13 13 12 13 14 15 16 16 16 16 16 16 16 16 16 16 16 16 16 16 16 16 16
6 6 6 6 6 6 5 5 5 5 6 7 7 7 7 8 8 8 9 10 11 11 11 12 13 14 15 15 15 15 15 15 16 16 16 16 16 16 16 16 15 16
5 6 6 6 6 6 6 5 5 5 5 6 6 7 6 6 5 6 6 7 8 9 10 11 11 12 13 14 15 15 15 15 15 15 15 15 15 15 15 15 15 15
5 6 6 6 6 6 6 5 5 5 5 5 5 6 6 5 5 4 5 5 6 7 8 9 10 11 12 13 14 14 14 15 15 14 14 14 14 14 14 15 15 14
6 5 5 6 6 6 6 6 5 5 5 5 5 5 5 6 5 5 4 4 4 5 6 7 8 9 11 11 11 12 13 14 15 14 14 14 14 14 14 14 14 14
6 6 5 5 5 5 5 5 5 5 5 5 4 4 4 5 5 5 4 3 3 4 5 5 6 7 8 9 9 10 11 12 14 14 14 14 13 13 13 13 13 13

ECMWFNIL_925_temp_069.txt.gz
Temp
15 15 16 16 16 16 16 17 17 17 17 18 18 18 18 18 18 18 18 17 17 17 17 17 17 17 17 17 16 16 16 16 16 16 16 16 16 16 16 17 17 17
15 15 15 15 15 15 16 16 16 17 17 18 18 18 18 18 18 18 17 17 17 17 17 17 17 17 16 16 16 16 16 16 16 16 16 16 16 16 16 17 17 17
14 14 14 15 15 15 15 16 16 17 17 18 18 18 18 17 17 17 17 17 16 17 17 17 17 16 16 16 16 16 16 16 15 16 16 16 16 16 16 17 16 16
14 14 14 14 14 15 15 15 16 16 17 17 17 17 17 17 17 17 17 17 16 16 17 17 17 17 16 16 16 16 16 16 15 15 16 16 16 15 16 16 16 16
15 15 14 14 14 14 14 15 16 16 17 17 17 17 17 17 17 17 17 17 16 16 17 17 17 17 16 16 16 16 15 15 15 15 15 16 15 15 15 16 16 17
15 15 14 14 14 14 14 15 15 15 16 16 16 17 17 17 17 17 17 17 17 16 17 17 17 17 16 16 16 15 15 15 15 15 15 15 15 15 15 16 16 17
14 14 14 14 13 13 14 14 14 14 14 15 15 16 16 17 17 17 17 17 17 17 17 17 17 17 17 16 16 15 15 15 15 15 15 15 15 15 15 16 16 17
14 14 14 14 13 13 13 13 13 13 13 14 14 15 15 16 16 16 17 17 17 17 17 17 17 17 17 17 16 15 15 15 15 15 15 15 16 16 16 16 16 16
14 14 13 13 13 13 12 12 13 13 13 13 14 14 14 15 15 16 16 16 17 17 17 17 17 17 17 16 16 15 15 15 15 14 15 15 16 16 16 16 16 16
13 13 13 13 13 13 12 12 12 13 13 13 13 13 14 14 15 15 16 16 16 17 17 17 17 17 16 16 16 16 15 15 15 15 15 15 15 16 16 16 15 16
13 13 13 13 13 13 12 12 12 12 12 13 13 13 13 14 14 15 15 16 16 16 17 17 18 17 16 15 16 16 15 15 15 15 15 15 15 15 16 15 15 16
13 13 13 13 13 13 12 12 12 11 11 12 12 13 13 13 13 14 15 15 16 16 16 17 18 17 16 16 16 16 16 15 15 15 15 15 16 16 15 15 15 16
12 12 13 13 13 12 12 11 11 11 11 11 11 11 11 12 12 13 14 15 15 15 16 16 16 16 16 16 16 16 16 15 15 15 15 15 15 16 16 15 15 16
12 12 12 12 12 12 12 11 11 11 10 10 10 10 10 10 10 11 13 14 15 15 15 15 15 15 16 15 16 16 16 15 15 15 15 15 15 16 16 16 16 16
12 12 12 12 12 12 11 11 11 10 10 9 9 9 8 8 9 10 11 12 13 14 14 15 15 15 15 14 15 15 15 15 15 15 15 15 15 15 15 16 16 15
12 11 11 11 11 11 11 11 11 10 9 9 8 8 7 7 7 8 9 10 11 12 13 14 14 14 14 14 14 15 15 15 15 15 15 15 15 15 15 16 16 15
11 11 11 11 11 11 11 11 10 10 9 9 8 8 7 6 6 7 7 8 9 10 11 12 12 12 13 14 14 15 15 15 15 15 15 15 15 15 15 15 15 15
11 11 11 11 10 10 10 10 10 9 9 8 8 8 7 6 6 6 6 6 7 8 9 10 10 10 11 12 13 14 14 14 15 15 15 15 15 15 15 15 15 15
11 11 10 10 10 10 10 10 10 9 9 8 8 8 7 7 6 5 5 5 5 6 7 8 8 8 9 10 11 12 13 13 14 15 15 15 15 14 14 15 15 15
11 11 10 10 10 10 10 9 9 9 9 9 8 8 7 7 6 6 5 5 5 5 5 6 6 7 8 9 10 11 12 13 13 14 15 15 15 14 14 15 15 15
11 11 10 10 10 9 9 9 9 9 9 9 9 9 8 7 7 6 5 5 5 4 4 5 5 5 6 8 9 10 11 12 13 13 13 14 14 15 15 14 14 14
11 11 10 10 10 10 9 9 8 8 8 8 8 8 8 8 8 7 6 5 5 4 4 4 4 4 5 6 7 8 10 11 12 13 13 13 13 14 14 14 14 14
11 11 10 10 10 10 9 9 8 8 8 8 8 8 8 8 8 8 7 6 5 4 4 4 3 3 4 5 6 7 8 10 11 11 12 13 13 13 14 14 14 14
10 10 10 10 10 10 9 9 9 8 8 8 8 8 7 7 7 8 7 7 6 5 4 4 3 3 3 4 5 6 7 9 9 10 11 12 13 13 13 14 14 15
10 10 10 10 10 9 9 9 9 8 8 8 8 8 7 7 7 7 7 7 6 6 5 4 3 3 3 3 4 5 6 8 9 9 10 11 12 13 13 13 14 15
10 10 10 10 10 10 9 9 9 9 8 8 8 8 7 7 7 7 6 6 6 6 5 4 4 3 3 2 3 4 5 7 8 8 8 10 11 12 13 13 14 13

ECMWFNIL_925_temp_072.txt.gz
Temp
15 15 15 15 15 15 15 15 16 16 16 17 17 17 18 18 18 18 18 18 17 17 17 17 17 17 16 16 15 15 16 16 16 16 16 16 16 16 16 16 16 16
15 15 15 15 14 15 15 15 15 15 16 16 17 17 17 17 18 18 18 17 17 17 17 17 17 17 16 16 15 15 16 16 16 16 16 16 16 16 15 16 16 16
15 15 15 15 14 14 14 14 15 15 15 16 16 16 16 16 17 17 17 17 17 17 17 17 17 17 17 16 16 15 15 16 16 16 16 16 16 16 16 16 16 16
15 15 15 15 14 14 14 14 14 14 14 15 15 15 15 15 16 16 17 17 17 17 17 17 17 17 16 16 16 16 16 16 16 16 16 16 16 16 16 16 16 15
15 15 15 14 14 14 13 13 14 14 14 14 14 14 14 15 15 16 16 16 17 17 16 16 17 16 16 16 16 16 16 16 16 16 15 16 16 16 15 15 15 15
14 14 14 14 14 14 13 13 13 13 13 13 14 14 14 14 14 15 15 15 16 16 16 16 15 16 16 15 15 16 15 15 16 15 15 16 16 15 15 15 15 15
14 14 14 14 14 14 13 13 12 12 13 13 13 13 14 14 14 14 15 15 15 16 16 15 15 15 15 15 15 15 15 15 15 15 15 15 15 15 15 15 15 15
13 13 13 13 13 13 13 13 12 12 12 12 12 12 13 13 14 14 14 14 15 15 15 15 15 15 15 15 15 15 15 14 15 15 15 15 15 15 15 15 15 15
13 13 13 13 13 13 13 12 12 12 12 11 11 11 12 12 12 12 12 13 14 14 15 15 15 14 14 15 15 15 14 14 15 15 15 15 15 15 15 15 15 15
13 13 13 13 13 12 12 12 11 11 11 11 11 11 10 10 10 10 11 12 12 13 14 15 15 15 14 14 15 15 15 14 15 15 15 15 15 15 15 15 15 15
12 12 12 12 12 12 12 12 11 11 11 10 10 10 10 9 9 9 9 10 11 12 13 14 14 14 14 14 14 15 15 15 15 15 15 15 15 15 15 15 15 15
12 12 12 12 12 12 11 11 11 11 10 10 9 9 9 8 8 8 8 9 9 10 12 12 12 12 11 12 13 13 14 15 15 15 15 15 14 14 14 15 15 15
12 11 11 11 11 11 11 11 11 10 10 9 9 9 8 8 7 7 7 7 8 9 10 10 10 10 10 11 11 12 13 14 14 15 15 15 14 14 14 15 15 15
12 11 11 11 11 11 11 11 10 10 9 9 9 8 8 8 7 6 6 6 7 7 9 9 8 8 8 9 9 10 11 12 13 14 15 15 14 14 14 14 14 14
12 11 11 11 11 11 10 10 10 10 9 9 9 8 8 8 7 6 6 6 6 6 7 7 6 6 6 7 8 9 10 11 12 13 14 14 14 15 15 14 14 14
11 11 11 11 10 10 10 10 10 9 9 9 9 9 8 8 7 7 6 6 5 5 6 6 5 4 5 6 7 8 8 10 11 12 13 14 14 15 14 14 14 15
11 11 11 10 10 10 9 9 9 9 9 9 9 9 9 8 8 7 6 6 5 5 5 5 4 3 4 6 7 8 8 9 10 11 12 13 14 14 14 14 14 15
12 11 11 11 10 10 9 9 9 9 8 8 8 8 8 8 8 7 7 6 5 5 5 4 4 3 4 5 6 7 8 9 10 11 11 12 13 13 14 14 14 14
11 11 11 11 10 10 9 9 9 8 8 8 8 8 8 8 8 7 7 6 6 5 5 4 4 3 3 4 5 6 7 8 10 11 11 12 12 13 14 14 14 15
11 11 11 11 10 10 10 9 9 8 8 8 8 8 8 7 7 7 7 6 6 6 5 4 4 3 3 3 4 6 7 8 10 11 11 11 12 12 13 13 14 14
11 11 11 10 10 10 10 9 9 8 8 8 8 8 7 7 7 7 7 6 6 5 5 4 4 3 3 3 3 5 7 8 9 10 10 10 11 12 12 13 13 14
10 10 10 10 10 10 10 9 9 9 8 8 8 8 8 7 7 7 6 6 6 5 4 4 3 3 3 3 2 4 6 7 7 8 8 10 11 11 12 13 13 13
10 10 10 10 10 10 9 9 9 9 9 8 8 8 8 7 7 7 6 6 5 5 4 4 3 3 2 3 2 3 4 5 5 6 7 8 9 10 12 12 13 13
10 10 10 10 10 10 9 9 9 9 9 8 8 8 8 7 7 7 6 6 5 5 4 3 3 3 3 3 2 2 3 3 3 4 5 7 8 9 10 11 12 13
10 10 10 9 9 9 9 8 8 8 8 8 8 8 8 8 7 7 6 6 5 5 4 4 3 3 3 3 2 2 2 2 2 3 3 5 6 7 8 9 9 10
10 10 10 10 9 9 8 8 8 8 8 8 8 8 8 8 7 7 6 6 6 5 5 4 3 3 3 3 3 3 2 2 2 2 3 3 4 4 6 7 7 8

ECMWFNIL_925_temp_075.txt.gz
Temp
15 15 14 14 14 13 13 13 13 14 14 14 14 14 14 14 15 15 15 15 15 15 15 16 16 16 16 16 15 15 15 15 15 15 15 15 15 16 16 15 15 15
14 14 14 14 13 13 13 13 13 13 13 13 13 13 13 14 14 14 15 15 15 15 15 15 16 16 16 15 15 15 15 15 15 15 15 15 15 15 15 15 15 15
14 13 13 13 13 13 13 12 12 12 12 12 12 13 13 13 13 14 14 14 14 15 15 15 15 15 15 15 15 15 15 15 15 15 15 15 14 14 14 15 15 15
13 13 13 13 13 12 12 12 12 12 12 12 12 12 12 12 12 13 13 13 13 14 14 15 15 15 15 15 15 15 15 15 15 15 15 15 15 14 15 15 14 14
13 13 13 13 12 12 12 11 11 11 11 11 11 11 11 11 11 11 12 12 13 13 14 14 14 15 15 15 15 14 14 14 15 15 15 15 15 14 15 15 14 14
13 12 12 12 12 11 11 11 11 11 11 10 10 10 10 10 10 10 11 11 12 13 13 13 13 14 14 14 14 14 14 14 14 14 14 14 14 14 15 15 15 15
12 12 12 11 11 11 11 10 10 10 10 10 9 9 9 9 9 9 9 9 11 12 11 11 11 12 12 13 13 13 14 14 14 14 14 14 14 14 15 15 15 15
11 11 11 11 11 11 10 10 10 9 9 9 9 8 8 8 8 8 8 8 9 10 9 9 9 10 10 11 11 11 12 13 14 14 14 14 14 14 14 15 15 15
11 11 11 11 11 10 10 9 9 9 9 9 8 8 8 7 7 7 7 7 8 8 8 8 9 9 9 10 10 10 11 12 13 13 14 14 14 14 14 14 14 15
11 11 11 11 10 10 10 9 9 9 9 8 8 8 7 7 7 7 6 6 6 7 7 7 8 8 9 9 9 9 10 11 12 12 13 14 14 14 14 14 15 15
11 10 10 10 10 10 10 9 9 9 9 8 8 8 7 7 7 7 6 6 6 6 6 6 5 5 6 7 8 8 9 10 10 11 12 13 13 14 14 14 15 15
10 10 10 9 9 9 9 9 9 9 9 9 8 8 8 7 7 6 6 6 5 5 5 5 4 3 4 4 6 7 8 9 10 10 11 12 13 13 14 14 14 14
10 10 10 9 9 9 9 9 9 8 9 8 8 8 8 7 7 6 6 6 5 5 5 4 4 3 3 3 4 5 6 8 9 10 11 11 12 13 14 14 14 14
10 10 10 9 9 9 8 8 8 8 8 8 8 8 8 7 7 6 6 6 5 5 4 4 3 3 3 3 3 4 5 6 8 9 10 11 12 12 13 14 14 14
10 10 10 9 9 9 8 8 8 8 8 8 8 7 7 7 7 6 6 6 5 5 4 4 3 3 2 2 2 3 3 5 7 8 9 11 11 12 12 13 14 14
10 10 10 9 9 9 8 8 8 8 8 8 7 7 7 7 7 6 6 5 5 4 4 4 3 2 2 3 3 3 3 4 6 7 8 9 10 10 11 12 13 14
10 10 10 9 9 9 8 8 8 8 8 8 7 7 7 7 6 6 6 5 5 4 4 4 3 3 3 3 3 4 3 4 5 6 7 8 8 9 11 12 12 13
10 10 9 9 9 9 8 8 8 8 8 8 7 7 7 6 6 6 5 5 5 4 4 4 3 3 3 3 3 4 4 4 4 5 6 7 8 9 10 11 12 12
10 10 9 9 8 8 8 8 8 8 8 8 7 7 7 6 6 6 6 5 5 4 4 4 3 3 3 3 3 4 4 3 3 4 5 6 7 8 9 10 11 12
9 9 9 8 8 8 8 8 8 8 8 8 7 7 7 6 6 6 6 5 5 4 4 3 3 3 3 3 3 4 4 3 3 3 4 5 6 7 7 8 9 10
9 9 8 8 8 7 7 7 7 8 8 8 8 7 7 7 6 6 5 5 5 4 4 3 3 3 3 4 4 4 3 3 2 3 3 4 4 5 5 6 6 7
9 9 8 8 8 7 7 7 7 7 7 7 7 7 7 6 6 6 5 5 5 4 4 3 3 2 3 3 4 4 3 2 2 3 3 3 3 3 4 4 4 5
9 9 8 8 8 7 7 7 7 7 7 7 7 7 6 6 6 5 5 5 5 4 4 3 3 3 3 3 3 3 3 3 2 2 3 3 3 3 3 3 3 4
9 9 8 8 8 7 7 7 7 7 7 6 6 6 6 6 5 5 5 5 5 4 4 3 3 3 3 2 2 3 3 2 2 2 2 2 2 2 2 2 3 3
10 9 9 8 8 8 7 7 7 6 6 6 6 6 6 5 5 5 5 5 5 4 4 3 3 3 3 3 2 2 2 2 2 2 2 2 2 2 2 2 2 3
10 9 9 8 8 8 7 7 7 7 6 6 6 6 6 5 5 5 5 5 4 4 4 4 3 3 3 3 3 2 2 2 1 1 2 2 2 2 2 2 2 2

ECMWFNIL_925_temp_078.txt.gz
Temp
13 12 12 12 12 11 11 11 11 11 11 11 11 11 11 12 12 12 12 13 13 14 14 14 14 14 14 14 14 14 14 14 14 14 14 14 15 15 14 14 14 14
12 12 12 11 11 11 11 11 11 10 10 10 10 10 11 11 11 12 12 13 13 13 12 13 13 13 13 14 14 14 14 14 14 14 14 14 14 14 14 14 14 14
11 11 11 11 10 10 10 10 10 10 9 9 9 9 9 10 10 11 12 12 12 10 10 11 12 12 13 13 14 14 14 14 14 14 14 14 14 14 14 14 14 14
11 11 10 10 10 10 10 10 9 9 9 8 8 8 8 9 9 10 10 11 10 9 9 10 11 11 11 12 13 13 13 13 13 13 14 14 14 14 14 14 14 14
11 10 10 9 9 9 9 9 9 8 8 8 8 8 8 8 8 8 8 8 8 8 10 10 10 11 11 11 11 11 12 12 12 13 13 13 14 14 14 14 14 14
10 10 9 9 9 9 9 9 8 8 8 7 7 7 7 7 7 7 7 7 7 8 9 10 10 10 10 10 11 11 11 11 12 12 12 12 13 13 14 14 14 14
10 10 9 9 9 9 9 8 8 8 8 7 7 7 7 6 6 6 6 6 6 7 8 9 9 9 9 9 10 10 11 11 11 12 12 12 12 13 13 14 14 14
9 9 9 9 9 9 9 8 8 8 8 7 7 7 6 6 6 6 5 5 6 6 6 6 6 7 8 8 8 9 9 10 11 11 11 12 12 12 12 13 13 14
9 9 9 9 9 9 8 8 8 8 8 7 7 7 6 6 6 5 5 5 5 5 5 4 4 5 5 5 6 6 7 8 9 9 10 11 11 11 12 12 12 13
9 8 8 8 8 8 8 8 8 8 8 7 7 7 6 6 6 5 5 5 4 4 4 3 3 3 3 4 4 4 4 5 7 7 8 9 10 10 11 12 12 12
8 8 8 8 8 8 8 8 8 8 7 7 7 7 6 6 6 5 5 4 4 4 4 3 3 3 3 3 3 3 3 3 4 5 6 8 8 9 10 11 11 12
8 8 8 8 8 8 7 7 7 7 7 7 7 7 6 6 5 5 5 4 4 4 4 3 3 3 2 3 3 3 2 3 3 3 5 6 7 8 8 9 10 11
8 8 8 8 8 8 7 7 7 7 7 6 6 6 6 6 5 5 5 4 4 4 4 3 3 3 3 3 3 2 2 2 2 3 4 5 6 7 8 8 9 10
8 8 8 8 8 8 7 7 7 7 6 6 6 6 6 5 5 5 5 4 4 4 3 3 3 3 3 3 2 2 2 2 2 3 4 4 5 6 7 8 9 10
8 8 8 8 8 8 8 7 7 7 7 6 6 6 6 5 5 5 4 4 4 3 3 3 2 2 3 3 2 2 2 2 2 3 4 4 5 6 7 7 8 9
8 8 8 8 8 8 7 7 7 7 6 6 6 6 5 5 5 4 4 4 3 3 3 3 2 2 3 4 3 3 2 2 3 3 3 4 4 5 6 6 6 7
8 8 8 8 8 7 7 7 7 7 6 6 6 6 5 5 5 4 4 4 3 3 3 2 2 2 3 4 4 3 2 2 2 3 3 3 4 4 4 4 5 5
8 7 7 7 7 7 7 7 7 6 6 6 6 5 5 5 5 4 4 4 3 3 3 3 2 2 3 3 4 4 3 2 2 3 3 3 3 3 3 4 4 4
7 7 7 7 7 7 7 7 7 6 6 5 5 5 5 5 5 4 4 4 4 3 3 3 2 3 3 3 4 4 4 2 2 2 3 3 3 3 3 3 3 4
7 7 6 7 7 7 6 6 6 6 6 5 5 5 5 5 4 4 4 4 4 3 3 3 3 3 3 3 3 4 4 3 2 2 2 3 2 2 3 2 3 3
7 7 6 6 6 6 6 6 6 6 6 5 5 5 5 5 4 4 4 4 3 3 3 3 3 3 3 3 3 3 3 2 2 2 2 2 2 2 2 2 2 3
7 7 7 6 6 6 6 6 6 6 5 5 5 5 5 5 4 4 4 4 3 3 3 3 3 3 3 3 3 3 2 2 1 1 2 2 2 2 2 1 1 2
8 7 7 6 6 6 6 6 6 5 5 5 5 5 5 4 4 4 4 3 3 3 3 2 3 3 3 3 3 2 2 1 1 1 1 2 2 1 1 1 1 2
8 7 7 7 6 6 6 6 6 5 5 5 5 5 4 4 4 4 3 3 3 2 2 2 3 3 3 3 3 2 2 1 1 1 1 1 1 1 1 1 1 1
8 8 7 7 7 6 6 6 6 5 5 5 5 4 4 4 4 3 3 3 3 2 2 2 3 3 3 3 3 2 2 1 1 1 0 1 1 1 1 1 0 1
8 8 7 7 7 7 6 6 6 5 5 5 5 4 4 4 3 3 3 3 3 3 3 2 3 3 3 4 3 3 2 2 1 0 0 0 1 1 1 0 0 0

ECMWFNIL_925_temp_084.txt.gz
Temp
10 10 9 9 9 8 8 8 8 8 8 8 8 8 8 8 8 8 8 9 9 9 9 10 10 10 10 10 11 11 12 12 12 12 12 13 13 12 12 13 13 13
9 9 9 9 8 8 8 8 8 8 8 8 8 8 8 8 8 8 8 8 9 9 9 9 9 10 10 10 10 11 11 12 12 12 12 12 12 12 12 12 12 12
9 9 8 8 8 8 8 8 8 8 8 8 8 8 8 8 7 7 7 8 9 9 9 9 9 9 9 9 10 10 11 10 10 10 10 10 10 10 10 11 11 11
8 8 8 8 8 7 7 7 7 7 7 7 7 7 7 7 6 7 7 8 8 8 8 8 8 9 9 9 9 10 10 9 7 7 7 7 7 6 7 7 8 9
8 8 8 7 7 7 7 7 7 6 6 6 6 6 6 5 5 5 6 7 7 7 8 8 8 8 8 9 9 8 7 5 4 4 4 5 5 5 5 5 6 6
8 8 7 7 7 7 7 6 6 6 5 5 5 5 4 4 4 4 4 5 6 6 7 7 7 7 7 8 8 6 4 3 3 3 4 4 4 4 5 5 5 5
8 8 8 7 7 7 6 6 6 5 5 5 5 4 4 4 3 4 4 4 5 5 5 6 5 5 6 6 6 4 2 3 3 3 3 4 4 4 4 5 5 5
8 8 7 7 7 7 6 6 6 5 5 5 4 4 4 4 4 4 4 4 4 4 4 5 5 5 5 4 3 2 2 2 2 3 3 3 4 4 4 4 5 5
7 7 7 7 7 6 6 6 6 5 5 5 4 4 4 4 4 3 3 3 3 4 4 4 4 4 4 4 3 2 2 2 2 2 3 3 3 4 4 4 4 5
7 7 7 6 6 6 6 5 5 5 5 5 4 4 4 4 4 3 3 3 3 3 3 3 3 4 4 4 3 2 2 2 2 2 3 3 3 3 4 4 4 4
7 6 6 6 6 6 5 5 5 5 5 4 4 4 4 4 4 3 3 3 3 3 3 3 3 3 4 4 3 2 2 2 2 2 2 3 3 3 3 3 3 4
6 6 6 6 5 5 5 5 5 5 4 4 4 4 4 4 4 3 3 3 3 2 2 3 3 3 3 4 3 3 3 2 2 2 2 2 3 3 3 2 3 3
6 6 6 6 5 5 5 5 5 5 4 4 4 4 4 4 4 3 3 3 3 3 3 3 3 3 3 4 4 4 3 3 3 2 2 2 2 2 2 2 2 2
6 6 6 6 5 5 5 5 5 4 4 4 4 4 4 4 4 4 4 3 3 3 3 3 3 3 3 3 4 4 3 3 3 2 2 2 2 2 2 2 2 2
6 6 6 6 5 5 5 5 5 4 4 4 4 4 4 4 4 4 3 3 3 3 3 3 3 3 3 3 3 3 3 3 3 2 2 2 1 1 1 2 2 1
6 6 6 5 5 5 5 5 5 4 4 4 4 4 4 4 4 4 3 3 3 3 3 3 3 3 3 3 3 3 3 3 2 2 2 1 1 1 1 1 1 1
6 6 6 5 5 5 5 5 4 4 4 4 4 4 4 4 4 4 3 3 3 3 3 3 3 3 3 3 3 3 3 2 2 2 2 1 1 1 1 1 1 1
6 6 5 5 5 5 5 4 4 4 4 4 3 3 3 4 3 3 3 3 3 3 3 3 3 3 3 3 3 3 2 2 2 2 1 1 1 0 1 1 1 1
6 6 5 5 5 5 5 5 5 4 4 3 3 3 3 3 3 3 3 3 3 3 3 3 3 3 3 3 3 3 2 2 2 1 1 1 0 0 0 0 0 0
6 5 5 5 5 5 5 5 4 4 3 3 3 3 2 2 2 3 3 3 3 3 3 3 3 3 3 2 3 2 2 1 1 1 1 0 0 -0 0 0 -0 0
5 5 5 5 5 5 4 4 4 3 3 3 2 2 2 2 2 3 3 3 3 3 3 3 3 3 2 2 2 2 2 1 1 1 0 0 0 -0 -0 -0 -0 0
5 5 5 5 5 4 4 4 4 3 3 2 2 2 2 2 2 3 3 3 3 3 3 3 3 2 2 2 2 2 2 1 1 0 0 0 -0 -0 -1 -1 -0 -0
5 5 5 5 5 4 4 4 3 3 3 3 2 2 2 2 2 3 3 3 3 3 3 3 3 2 2 2 2 2 2 1 0 0 0 0 -0 -0 -1 -1 -0 -0
5 5 5 5 4 4 4 3 3 3 3 3 2 2 2 2 3 3 3 3 3 3 3 3 3 2 2 2 2 2 2 1 1 0 1 0 0 -0 -0 -0 -0 0
6 5 5 5 4 4 4 3 3 3 3 3 3 2 2 2 2 3 3 3 3 3 3 3 3 2 2 2 2 2 2 2 1 1 1 1 0 0 0 0 0 0
6 5 5 5 5 4 4 4 3 3 3 3 3 2 2 2 2 2 2 2 2 2 2 3 2 2 2 2 2 2 2 2 2 1 1 1 1 0 0 0 0 0

ECMWFNIL_925_temp_087.txt.gz
Temp
9 9 8 8 7 7 7 7 7 7 7 7 7 6 6 6 7 8 8 8 8 8 8 9 9 9 9 9 9 9 8 7 7 8 8 8 8 8 8 8 9 8
9 8 8 7 7 7 7 6 6 6 6 6 6 6 6 6 7 7 7 8 8 8 8 8 8 8 7 6 6 6 5 5 5 5 5 6 6 6 6 6 7 7
8 8 7 7 7 7 7 6 6 5 6 6 5 5 5 5 6 7 7 8 8 8 8 8 7 7 5 4 4 4 4 4 4 4 5 5 5 5 6 6 6 6
7 7 7 7 6 6 6 6 6 5 5 5 5 5 5 5 6 7 7 7 7 7 8 8 7 6 5 4 4 4 4 4 4 4 5 5 5 5 5 5 6 6
8 7 7 7 6 6 6 6 6 5 5 5 5 5 5 5 6 6 6 6 6 6 7 6 6 6 5 4 4 4 4 4 4 4 5 5 5 5 5 6 6 6
7 7 7 7 6 6 6 5 5 5 5 5 5 5 5 5 5 5 5 5 5 5 5 5 5 5 4 4 4 4 4 4 4 4 5 5 5 5 5 5 6 6
7 7 6 6 6 6 5 5 5 5 5 5 5 5 5 5 5 5 5 5 5 5 5 5 4 4 4 4 4 4 4 4 4 4 5 5 5 5 5 5 5 6
6 6 6 6 6 5 5 5 5 5 5 5 5 5 5 5 5 4 4 4 5 5 4 4 4 4 4 4 4 4 4 4 4 4 4 4 5 5 6 5 5 5
6 6 6 6 5 5 5 5 5 5 5 5 4 4 4 4 4 4 4 4 4 4 4 4 4 4 4 4 3 3 4 4 4 4 4 4 5 5 5 5 5 5
6 6 6 5 5 5 5 5 5 5 4 4 4 4 4 4 4 4 4 4 4 4 4 4 4 4 4 4 3 3 3 4 4 4 4 4 4 5 5 4 4 4
6 6 5 5 5 5 5 5 5 4 4 4 4 4 4 4 4 4 4 4 3 3 3 3 3 3 3 3 3 3 3 3 3 3 4 4 4 4 4 4 4 4
6 5 5 5 5 5 5 5 5 4 4 4 4 4 4 4 4 4 3 3 3 3 3 3 3 3 3 3 3 3 3 3 3 3 3 4 4 4 4 4 4 4
5 5 5 5 5 5 5 4 4 4 4 4 4 4 4 3 3 3 3 3 3 3 3 3 3 3 2 2 2 2 3 3 3 3 3 3 3 3 4 4 4 3
5 5 5 5 5 5 4 4 4 4 4 4 4 4 3 3 3 3 3 3 3 3 3 3 3 2 2 2 2 2 2 3 3 3 3 3 3 3 4 4 3 3
5 5 5 5 5 4 4 4 4 4 4 4 4 3 3 3 3 3 3 3 3 3 3 2 2 2 2 1 1 1 2 3 3 3 3 3 3 3 3 3 3 3
5 5 5 5 5 4 4 4 4 4 3 3 3 3 3 3 3 4 4 3 3 3 3 2 2 2 2 2 2 1 2 2 3 3 3 3 3 3 3 3 3 2
5 5 5 5 4 4 4 4 3 3 3 3 3 3 3 3 3 4 4 4 3 3 3 2 2 2 2 2 3 2 2 2 3 3 3 3 3 3 3 2 2 2
5 5 5 4 4 4 4 4 3 3 3 3 3 3 3 3 3 4 4 4 3 3 3 2 2 2 2 2 3 3 2 2 3 3 3 3 2 2 2 2 2 2
5 5 5 4 4 4 4 4 4 4 4 3 3 3 3 3 3 4 4 3 3 3 2 2 2 2 2 2 3 3 2 2 3 3 3 3 2 2 2 2 2 2
5 5 5 4 4 4 4 4 4 4 3 3 3 3 3 3 3 3 3 3 3 2 2 2 2 2 2 2 3 3 3 2 2 2 2 3 2 2 2 2 2 2
5 5 5 5 5 5 5 4 4 3 3 3 3 3 3 3 3 3 3 3 3 2 2 2 2 2 2 2 3 3 3 2 2 2 2 2 2 2 2 3 2 2
5 5 5 5 4 4 4 4 3 3 3 3 3 3 3 3 3 3 3 3 2 2 2 2 2 2 2 2 3 3 3 3 3 3 3 3 2 2 2 2 2 2
5 5 5 4 4 4 4 3 3 3 3 3 3 3 3 3 3 2 2 2 2 2 2 2 2 2 3 3 3 3 3 2 3 3 3 3 3 3 3 3 2 2
5 5 4 4 4 4 3 3 3 3 3 3 3 2 2 2 2 2 2 2 2 2 2 2 2 2 3 3 3 3 3 2 3 3 3 3 3 3 3 3 2 2
5 5 4 4 4 4 3 3 3 3 3 3 3 2 2 2 2 3 2 2 2 2 2 2 2 2 3 3 3 3 3 2 3 3 3 3 3 3 3 3 3 2
5 5 4 4 4 4 4 3 3 3 3 3 3 2 2 2 2 2 2 2 2 2 2 2 2 2 3 3 3 3 3 3 2 2 3 3 3 3 3 3 3 3

ECMWFNIL_925_temp_093.txt.gz
Temp
13 13 12 12 12 12 12 12 11 11 11 12 12 11 11 11 10 10 11 10 10 10 10 10 10 10 11 10 11 11 11 10 11 11 11 11 11 11 10 11 11 11
12 12 12 11 11 11 11 10 10 11 11 11 11 11 11 10 10 10 10 10 10 10 10 10 10 10 10 10 10 11 11 10 10 11 11 11 11 11 11 11 11 11
11 11 11 11 11 10 10 10 10 11 11 11 11 10 10 10 10 10 10 10 10 10 10 10 10 10 10 10 10 11 11 10 10 11 11 11 11 11 11 11 11 11
11 11 11 11 11 11 11 10 11 11 11 10 10 10 10 10 10 10 10 10 10 10 10 10 10 10 10 10 10 10 10 10 10 10 11 11 10 10 10 10 10 10
11 11 11 11 11 11 11 11 11 10 10 10 10 10 10 10 11 11 10 10 10 10 10 10 10 10 10 10 10 10 10 10 10 10 11 11 10 10 10 10 10 10
11 11 11 11 11 11 11 11 10 10 10 10 10 10 10 10 10 11 11 11 10 10 10 10 10 10 10 10 10 10 10 10 10 10 10 10 10 10 10 10 10 10
11 11 11 11 10 10 10 10 10 10 10 10 10 10 10 10 10 10 10 10 10 10 10 10 10 10 10 10 10 10 10 10 10 10 10 10 10 10 10 9 9 9
11 11 10 10 10 10 10 10 10 10 10 10 10 10 10 10 10 10 10 10 10 10 10 10 10 9 9 9 10 10 10 9 10 10 10 10 10 10 9 9 9 9
11 11 10 10 10 10 10 10 10 10 10 10 10 10 10 10 10 10 10 10 10 10 9 9 9 9 9 9 9 9 9 9 9 9 9 9 9 9 9 9 9 9
11 10 10 10 10 10 10 10 10 10 10 10 10 10 10 10 10 10 10 10 10 9 9 9 9 8 8 9 9 9 9 9 9 9 9 9 9 9 9 9 8 8
10 10 10 10 10 10 10 10 10 10 10 10 10 10 10 10 10 10 10 9 9 9 8 8 8 8 8 8 8 9 9 9 9 9 9 9 9 9 9 8 8 8
10 10 10 10 10 10 10 10 10 10 10 10 10 10 10 10 9 9 9 9 9 8 8 7 7 6 6 7 8 8 9 9 9 9 9 9 9 8 8 8 8 8
10 10 10 10 10 10 10 10 10 10 10 10 9 10 10 10 9 9 9 8 8 7 7 7 6 6 5 5 6 7 8 9 8 8 8 8 8 8 8 8 8 8
10 10 10 10 10 10 9 9 9 9 9 9 9 9 9 9 9 9 9 8 7 7 6 6 5 5 5 5 5 6 8 8 8 8 8 8 8 8 8 8 8 8
10 10 10 10 10 9 9 9 9 9 9 9 9 9 9 9 9 9 9 8 7 7 6 5 4 4 4 5 5 5 6 8 8 8 8 8 8 8 8 8 8 8
10 10 10 10 10 9 9 9 9 9 9 9 9 9 9 9 9 9 8 8 7 6 6 5 4 4 4 5 5 5 5 7 8 8 8 8 8 8 8 8 8 8
11 10 10 10 10 9 9 9 9 9 9 9 9 8 8 8 8 8 8 8 7 6 6 5 4 4 5 5 5 6 6 6 8 8 8 8 8 8 8 8 7 7
11 11 10 10 10 10 10 9 9 9 9 9 8 8 8 8 8 8 8 7 7 6 5 5 4 4 5 5 5 6 6 7 8 8 8 8 8 8 8 8 7 7
11 11 11 10 10 10 10 10 9 9 9 8 8 8 8 8 8 8 8 7 7 6 5 5 4 4 4 5 5 6 7 7 8 8 8 8 8 8 8 8 7 7
11 11 11 10 10 10 10 10 9 9 9 8 8 8 8 8 7 7 7 7 7 7 6 5 4 4 4 5 6 6 7 7 8 8 8 8 8 8 8 8 7 7
11 11 11 10 10 10 10 9 9 9 9 9 9 8 8 8 8 7 7 7 7 7 6 5 4 4 5 5 6 6 7 8 8 8 8 8 8 8 9 8 7 6
11 11 11 10 10 10 10 9 9 9 9 9 9 8 8 8 8 7 7 7 7 7 6 5 4 4 5 5 5 6 7 8 8 8 9 9 8 8 9 8 7 6
11 11 11 10 10 10 9 9 9 9 9 9 9 9 8 8 8 7 7 7 7 7 7 6 5 4 4 5 5 6 6 7 8 8 8 9 9 8 8 8 7 6
11 11 11 10 10 10 9 9 9 9 9 9 9 9 8 8 8 8 7 7 6 6 6 6 5 4 4 4 5 5 6 6 7 8 8 8 9 8 8 8 7 7
11 11 11 10 10 9 9 9 9 9 9 9 9 9 9 9 9 8 8 7 6 6 6 6 5 5 4 4 4 5 5 6 7 7 7 7 8 8 8 8 7 7
11 10 10 10 9 9 9 9 9 9 9 9 9 9 9 9 9 8 8 8 7 6 6 6 6 5 4 4 4 4 4 5 6 6 6 6 7 8 8 8 8 7

ECMWFNIL_925_temp_096.txt.gz
Temp
13 13 13 13 13 12 12 12 12 12 12 12 11 11 11 11 11 11 11 11 10 10 11 11 11 11 11 11 11 11 11 11 11 11 11 11 11 11 11 11 11 11
12 12 12 12 11 11 11 12 12 12 11 11 11 11 11 11 11 11 11 11 10 10 10 11 11 11 11 11 11 11 11 11 11 11 11 11 10 10 10 10 10 10
12 11 11 11 11 11 11 11 11 11 11 11 11 11 11 11 11 11 11 11 11 10 10 10 10 11 11 11 11 11 11 11 11 11 11 10 10 10 10 10 10 9
11 11 11 11 11 11 11 11 11 11 11 11 11 11 11 11 11 11 11 11 11 10 10 10 10 10 10 10 10 10 10 11 11 11 11 10 10 10 10 10 10 9
11 11 11 11 11 11 11 11 11 11 11 11 11 11 11 11 11 11 11 11 11 11 10 10 10 10 10 10 10 10 10 10 10 10 10 10 10 10 9 9 9 9
12 11 11 11 11 11 11 11 11 11 11 11 11 11 11 11 11 11 11 11 11 11 10 10 10 10 10 10 10 10 10 10 10 10 10 10 10 10 9 9 9 9
12 12 12 11 11 11 11 11 11 11 11 11 11 11 11 11 11 11 11 11 10 10 10 10 10 10 10 10 10 10 10 10 10 10 10 10 9 9 9 9 9 8
12 12 11 11 11 11 11 11 11 11 11 11 11 11 11 11 11 11 10 10 10 10 10 9 9 9 9 10 10 10 10 10 9 9 9 9 9 9 9 9 8 8
11 11 11 11 11 11 11 11 11 11 11 10 10 10 11 10 10 10 10 10 9 9 9 9 9 9 9 9 9 9 9 9 9 9 9 9 9 9 8 8 8 8
11 11 11 11 11 11 11 11 11 11 11 10 10 10 11 10 10 10 9 9 9 9 8 8 8 8 8 9 9 9 9 9 9 9 9 9 9 8 8 8 8 8
11 11 11 11 11 10 11 11 10 10 10 10 10 10 10 10 10 10 9 9 8 8 7 7 7 7 7 8 9 9 9 9 9 9 9 8 8 8 8 8 8 8
11 11 10 10 10 10 10 10 10 10 10 10 10 10 10 10 9 9 9 8 7 7 7 6 6 6 6 7 8 8 9 9 9 8 8 8 8 8 8 8 8 8
11 10 10 10 10 10 10 10 10 10 10 10 10 10 10 9 9 8 8 7 7 6 6 6 6 6 6 6 7 7 8 8 8 8 8 8 8 8 8 8 8 8
11 10 10 10 10 10 10 10 10 10 10 10 10 10 10 10 9 8 8 7 6 6 5 5 6 6 6 6 7 7 8 8 8 9 9 9 9 8 8 8 8 8
10 10 10 10 10 10 10 10 10 10 10 10 10 10 10 9 9 8 8 7 6 5 5 5 5 5 5 6 6 7 7 8 8 9 9 9 9 8 8 8 7 7
11 10 10 10 10 10 10 10 10 10 10 9 9 9 9 9 9 8 7 7 6 5 5 5 5 5 5 6 6 7 7 8 8 8 9 9 9 9 8 8 7 7
11 11 10 10 10 10 10 10 10 9 9 9 9 9 9 9 8 8 7 7 6 5 5 5 5 5 6 6 6 7 7 8 8 8 9 9 9 9 8 8 7 7
11 11 10 10 10 10 10 10 10 9 9 9 9 9 8 8 8 8 7 6 6 5 5 5 5 5 6 6 7 7 7 8 8 8 9 8 8 9 9 8 7 7
11 11 11 11 10 10 10 10 10 9 9 9 8 8 8 8 8 8 7 7 6 5 5 5 5 5 6 6 7 7 8 8 8 8 9 9 8 9 9 8 7 7
11 11 11 11 10 10 10 10 9 9 9 9 8 8 8 8 8 8 8 7 6 6 6 6 6 6 6 7 7 7 8 8 8 9 9 9 9 9 8 8 7 7
11 11 11 11 10 10 10 9 9 9 9 9 9 8 8 8 8 8 8 7 7 6 6 6 6 6 6 7 7 7 8 8 8 9 9 9 9 8 8 8 7 7
11 11 11 11 10 10 10 9 9 9 9 9 9 8 8 8 8 8 7 7 7 6 6 6 6 6 6 7 7 7 7 8 8 8 8 9 8 8 8 8 8 7
11 11 11 10 10 10 10 9 9 9 9 9 9 8 8 8 8 7 7 7 7 7 6 6 6 6 6 7 7 7 7 7 7 8 8 8 8 8 8 8 8 7
11 11 11 10 10 10 9 9 9 9 9 9 9 9 8 8 8 7 7 7 7 6 6 6 6 6 6 6 6 6 6 6 7 7 7 7 7 7 8 8 8 7
11 11 11 10 10 10 9 9 9 9 9 9 9 9 9 8 8 8 7 7 6 6 6 6 6 6 6 6 6 6 6 6 6 5 5 6 6 6 7 8 8 7
11 11 11 10 10 9 9 9 9 9 9 9 9 9 9 9 9 8 8 7 7 7 6 6 6 6 6 6 6 6 5 5 5 5 5 5 5 6 7 7 7 7

ECMWFNIL_925_temp_102.txt.gz
Temp
14 13 13 13 12 12 12 12 12 11 11 10 10 10 10 10 10 11 10 10 10 10 10 10 10 10 10 10 9 9 9 9 8 8 8 8 7 7 7 7 7 6
13 13 13 13 12 12 12 12 12 11 11 10 10 10 10 10 10 10 10 10 10 10 10 10 10 10 10 10 9 9 9 9 8 8 8 7 7 7 7 6 6 6
13 13 13 12 12 12 12 12 11 11 11 10 10 10 10 10 10 10 10 10 10 10 10 10 10 10 10 9 9 9 9 8 8 8 8 7 7 7 6 6 6 6
13 12 12 12 12 12 12 12 11 11 11 10 10 10 10 10 10 10 10 10 10 10 10 10 10 10 9 9 9 9 9 8 8 8 8 7 7 7 7 7 6 6
12 12 12 12 12 12 11 11 11 11 10 10 10 10 10 10 10 10 10 10 10 10 9 9 9 9 9 9 9 9 8 8 8 8 7 7 7 7 7 7 6 6
12 12 12 11 11 11 11 11 11 11 11 10 10 10 10 10 10 10 9 9 9 9 9 9 9 9 9 9 9 9 8 8 8 8 7 7 7 7 7 7 6 6
11 11 11 11 11 11 11 11 11 11 10 10 10 10 10 10 9 9 9 9 9 9 9 9 9 9 9 9 8 8 8 8 8 7 7 7 7 7 7 7 6 6
11 11 11 11 11 11 11 11 11 10 10 10 10 10 10 10 9 9 9 9 9 9 9 9 9 9 9 8 8 8 8 8 7 7 7 7 7 7 7 6 6 6
11 11 11 11 11 11 11 10 10 10 10 10 10 9 9 9 9 9 9 9 9 9 9 9 8 8 8 8 8 8 8 8 7 7 7 7 7 7 7 6 6 6
11 11 11 11 10 10 10 10 10 10 10 10 9 9 9 9 9 9 9 9 9 8 8 8 8 8 8 8 8 8 8 8 7 7 7 7 7 7 7 6 6 6
11 11 11 10 10 10 10 10 10 10 9 9 9 9 9 9 9 9 9 9 8 8 8 8 8 8 8 8 8 8 8 8 7 7 7 7 7 7 7 6 6 6
10 10 10 10 10 10 10 10 10 9 9 9 9 9 9 9 9 9 8 8 8 8 8 8 8 8 8 8 8 8 8 8 8 8 8 7 7 7 6 6 6 6
10 10 10 10 10 10 10 10 10 9 9 9 9 9 9 9 9 9 8 8 8 8 8 8 8 8 8 8 8 8 8 8 8 8 8 8 7 7 7 6 6 6
10 10 10 10 10 10 10 10 9 9 9 9 9 9 8 8 9 8 8 8 7 7 7 7 8 8 8 8 8 8 8 8 8 8 8 7 7 7 7 6 6 6
10 10 10 10 10 10 10 9 9 9 9 8 8 8 8 8 8 8 8 8 7 7 7 7 7 8 8 8 8 8 8 8 8 8 8 7 7 7 7 6 6 6
10 10 10 10 10 10 10 9 9 9 8 8 8 8 7 7 7 8 8 7 7 7 7 7 7 7 7 8 8 8 8 8 8 8 8 7 7 7 7 6 6 6
10 10 10 10 10 10 9 9 9 8 8 8 7 7 7 7 7 7 7 7 7 6 7 7 7 7 7 7 8 8 8 8 8 8 8 7 7 7 7 6 6 6
10 10 10 10 10 9 9 9 8 8 8 7 7 7 7 7 7 7 7 7 7 7 7 7 7 7 7 7 8 8 8 8 8 8 8 7 7 7 7 7 6 6
10 10 10 10 9 9 9 9 8 8 7 7 7 7 7 7 7 7 7 6 7 7 6 6 7 7 7 7 8 8 8 8 8 7 7 7 7 7 7 7 6 6
10 10 9 9 9 9 9 8 8 8 8 7 7 7 7 7 6 6 6 6 7 6 6 6 7 7 7 7 7 7 8 8 7 7 7 7 7 7 7 6 6 6
9 9 9 9 9 9 9 8 8 8 8 7 7 7 7 7 6 7 6 6 7 7 6 6 7 7 7 7 7 7 7 7 7 7 7 7 7 7 6 6 6 6
9 9 9 9 9 9 8 8 8 8 7 7 7 7 7 7 6 7 7 6 7 7 7 7 6 7 7 7 7 7 7 7 7 7 7 7 7 6 6 6 5 6
9 9 9 9 9 9 8 8 8 8 7 7 7 7 7 6 6 6 6 7 7 7 7 7 6 7 7 7 7 7 7 7 7 7 7 7 6 6 6 6 5 6
9 9 9 9 8 8 8 8 8 7 7 7 7 7 7 6 6 6 6 7 7 7 7 7 7 7 7 7 7 7 7 7 7 7 7 6 6 6 6 6 6 6
9 9 9 9 8 8 8 8 8 7 7 7 7 7 7 7 6 6 6 6 7 7 7 7 7 6 6 7 6 6 7 6 6 7 6 6 6 6 6 6 6 6
9 9 9 8 8 8 8 8 7 7 7 7 7 7 7 7 7 7 7 6 6 7 7 7 7 7 6 6 6 6 6 6 7 7 6 6 6 6 6 6 6 6

ECMWFNIL_925_temp_105.txt.gz
Temp
14 13 13 13 12 12 12 11 11 11 11 10 10 10 10 10 10 10 10 10 10 10 10 10 10 9 9 9 9 9 8 8 8 7 7 7 7 6 6 5 5 5
14 13 13 13 12 12 12 11 11 11 10 10 10 10 10 10 10 10 10 10 10 10 10 10 9 9 9 9 9 8 8 8 7 7 7 7 6 6 6 5 5 5
13 13 13 13 12 12 11 11 11 11 10 10 10 10 10 10 10 10 10 10 10 10 10 9 9 9 9 8 8 8 8 8 7 7 7 7 6 6 6 6 5 5
13 13 13 12 12 12 11 11 11 11 10 10 10 10 10 10 10 10 10 10 10 10 9 9 9 9 8 8 8 8 7 7 7 7 7 6 6 6 6 6 5 5
13 13 12 12 12 11 11 11 11 10 10 10 10 10 10 10 10 10 10 10 10 9 9 9 9 9 8 8 8 8 7 7 7 7 6 6 6 6 6 6 6 5
12 12 12 12 12 11 11 11 11 10 10 10 10 10 10 10 10 10 10 9 9 9 9 9 9 8 8 8 8 7 7 7 7 7 6 6 6 6 6 6 5 5
12 12 12 12 11 11 11 11 10 10 10 10 10 10 10 10 10 9 9 9 9 9 9 9 8 8 8 8 8 7 7 7 7 7 6 6 6 6 6 6 5 5
12 12 11 11 11 11 11 10 10 10 10 10 9 9 9 9 9 9 9 9 9 9 9 9 8 8 8 8 7 7 7 7 7 7 6 6 6 6 6 6 5 5
11 11 11 11 11 11 10 10 10 10 10 10 9 9 9 9 9 9 9 9 9 9 8 8 8 8 8 8 7 7 7 7 7 7 7 6 6 6 6 6 5 5
11 11 11 11 11 10 10 10 10 10 10 10 9 9 9 9 9 9 9 9 9 8 8 8 8 8 8 7 7 7 7 7 7 7 7 7 6 6 6 6 5 5
11 11 11 11 10 10 10 10 10 10 9 9 9 9 9 9 9 9 9 9 8 8 8 8 8 8 8 7 7 7 7 7 7 7 7 7 6 6 6 6 5 5
10 10 10 10 10 10 10 10 10 9 9 9 9 9 9 9 9 9 8 8 8 8 8 8 8 8 7 7 7 7 7 7 7 7 7 7 7 6 6 6 6 5
10 10 10 10 10 10 10 10 9 9 9 9 9 9 9 8 8 8 8 8 8 8 8 8 8 7 7 7 7 7 7 7 7 7 7 7 7 6 6 6 5 5
10 10 10 10 10 10 9 9 9 9 9 9 9 9 9 8 8 8 8 8 8 8 8 7 7 7 7 7 7 7 7 7 7 7 7 7 7 6 6 6 5 5
10 10 10 10 10 9 9 9 9 9 9 9 9 9 8 8 7 8 8 7 7 8 7 7 7 7 7 8 8 7 7 7 7 7 7 7 7 6 6 6 6 5
10 10 10 10 10 9 9 9 9 9 8 8 8 8 8 7 7 7 7 7 7 7 7 7 7 7 8 8 8 8 8 7 7 7 7 7 7 7 6 6 6 6
10 10 10 10 9 9 9 9 8 8 8 8 8 8 7 7 7 7 7 7 7 7 7 7 7 7 8 8 8 8 8 8 7 7 7 7 7 7 6 6 6 6
10 10 9 9 9 9 9 8 8 8 8 8 8 7 7 7 7 7 6 6 7 7 7 7 7 7 7 8 8 8 8 8 8 7 7 7 7 7 6 6 6 6
10 10 9 9 9 9 8 8 8 8 8 8 8 7 7 6 6 6 6 6 6 7 7 7 7 7 7 7 8 8 8 8 8 8 7 7 7 6 6 6 6 6
10 9 9 9 9 8 8 8 8 8 8 8 7 7 6 6 6 6 6 6 6 7 7 7 7 7 7 7 7 8 8 7 7 8 7 7 7 6 6 6 6 6
10 9 9 9 8 8 8 8 8 8 7 7 7 7 7 6 6 6 6 6 6 6 7 7 7 7 7 7 7 7 7 7 7 7 7 7 7 6 6 6 6 6
9 9 9 9 8 8 8 8 8 7 7 7 7 7 6 6 6 6 6 6 6 6 6 7 7 7 7 7 7 7 7 7 7 7 7 7 7 6 6 6 6 6
9 9 9 8 8 8 8 8 7 7 7 7 7 6 6 6 6 6 6 7 6 6 6 7 6 7 7 7 7 7 7 7 7 7 7 7 6 6 6 6 6 6
9 9 9 8 8 8 8 8 7 7 7 7 7 7 6 6 6 6 7 7 7 7 7 7 7 6 7 7 7 7 7 7 7 7 6 6 6 6 6 6 6 6
9 9 9 8 8 8 8 8 7 7 7 7 7 7 6 6 7 7 7 7 7 7 7 7 7 7 7 7 7 7 7 6 6 6 6 6 6 6 6 6 6 6
9 9 9 9 8 8 8 8 8 7 7 7 7 7 6 7 7 7 7 7 7 7 7 7 7 7 7 7 7 7 7 6 6 6 6 6 6 6 6 6 6 6

ECMWFNIL_925_temp_111.txt.gz
Temp
15 15 15 14 14 14 14 14 13 13 12 12 11 11 11 11 10 10 10 10 10 10 10 10 10 10 9 9 9 9 9 9 8 8 8 9 9 9 9 8 8 7
15 15 15 14 14 14 14 14 13 13 12 12 11 11 10 10 10 10 10 10 10 10 10 9 9 9 9 9 9 8 8 8 8 8 8 8 8 8 8 8 8 7
15 15 14 14 14 14 13 13 13 13 12 12 11 11 10 10 10 10 10 10 9 9 9 9 9 9 9 8 8 8 7 7 7 8 8 8 8 8 8 8 8 7
15 14 14 14 14 14 13 13 12 12 12 11 11 10 10 10 10 10 9 9 9 9 9 9 8 8 8 8 8 7 7 7 7 7 7 7 7 7 7 7 7 6
14 14 14 14 14 14 13 13 12 12 12 11 10 10 10 10 10 9 9 9 9 9 9 8 8 8 8 8 7 7 7 7 7 7 7 7 7 7 7 6 6 5
14 14 13 13 13 13 13 12 12 12 11 11 10 10 10 10 10 9 9 9 9 9 8 8 8 7 7 7 7 6 6 6 7 7 7 6 6 7 6 5 5 5
13 13 13 13 13 13 12 12 12 12 11 11 10 10 10 10 10 9 9 9 8 8 8 8 7 7 7 7 7 6 6 6 6 6 6 6 6 6 5 5 5 5
13 13 13 13 13 12 12 12 12 11 11 10 10 10 10 10 9 9 9 8 8 8 8 7 7 7 7 7 6 7 7 6 6 6 6 6 6 5 5 5 5 5
13 13 13 13 12 12 12 12 11 11 11 10 10 10 10 10 9 9 9 8 8 8 7 7 7 7 7 6 6 6 6 6 6 6 6 6 5 5 5 5 5 5
13 12 12 12 12 12 12 11 11 11 10 10 10 10 10 9 9 9 9 8 8 8 7 7 7 7 7 7 6 6 6 6 6 6 6 6 5 5 5 5 5 5
12 12 12 12 12 12 11 11 11 10 10 10 10 10 9 9 9 9 9 8 8 8 7 7 7 7 7 7 6 6 6 6 6 6 6 5 5 5 5 5 5 5
12 12 12 12 12 11 11 11 11 10 10 10 10 9 9 9 9 9 8 8 8 8 7 7 7 7 7 7 6 6 6 6 6 6 6 5 5 5 5 5 5 5
12 12 12 12 11 11 11 11 10 10 10 10 9 9 9 9 9 9 8 8 8 8 8 7 7 7 7 7 7 6 6 6 6 6 6 5 5 5 5 5 5 5
11 11 11 11 11 11 11 10 10 10 10 9 9 9 9 9 9 9 8 8 8 8 8 7 7 7 7 7 7 6 6 6 6 6 6 5 5 5 5 5 5 5
11 11 11 11 11 11 10 10 10 10 9 9 9 9 9 9 9 9 8 8 8 8 8 7 7 7 7 7 7 7 6 6 6 6 6 6 5 5 5 5 5 5
11 11 11 11 10 10 10 10 10 9 9 9 9 9 9 9 9 8 8 8 8 8 7 7 7 7 7 7 7 7 7 6 6 6 6 6 6 6 5 5 5 5
10 10 10 10 10 10 10 9 9 9 9 9 9 9 9 8 8 8 8 8 8 7 7 7 7 7 7 7 7 7 7 7 6 6 6 6 6 6 6 6 5 5
10 10 10 10 10 10 9 9 9 9 9 9 9 8 8 8 8 8 8 8 8 7 7 7 7 7 7 7 7 7 7 7 6 6 6 6 6 6 6 6 6 6
10 10 9 9 9 9 9 9 9 9 9 9 8 8 8 8 8 8 8 8 8 7 7 7 7 7 7 7 7 7 7 7 7 6 6 6 6 6 6 6 6 6
9 9 9 9 9 9 9 9 9 9 9 9 8 8 8 8 8 8 8 8 7 7 7 7 7 7 7 7 7 7 7 7 7 7 6 6 6 6 6 6 6 6
9 9 9 9 9 9 9 9 9 9 9 8 8 8 7 7 7 7 7 7 7 7 7 7 7 7 7 7 7 7 7 7 7 7 7 6 6 6 6 6 6 6
9 9 9 9 9 8 9 9 9 9 9 8 8 8 7 7 7 7 7 7 7 7 7 7 7 7 7 7 7 7 7 7 7 7 7 6 6 6 6 6 6 6
9 9 9 9 8 8 8 9 9 9 9 8 8 8 7 7 7 7 7 7 7 7 7 7 7 7 7 7 7 7 7 7 7 7 7 7 6 6 6 6 6 6
9 9 9 9 8 8 9 9 9 9 8 8 8 8 7 7 7 6 6 6 7 7 7 7 7 7 7 7 7 7 7 7 7 7 7 7 6 6 6 6 6 6
9 9 9 9 8 8 9 9 8 8 9 8 8 8 8 7 6 6 6 6 6 6 6 7 7 7 7 7 7 7 7 7 7 7 6 7 6 6 6 6 6 6
8 9 9 9 9 8 8 8 9 8 8 8 8 8 7 7 6 6 6 6 6 6 6 6 6 6 7 7 7 7 7 7 7 6 6 6 6 6 6 6 6 6

ECMWFNIL_925_temp_114.txt.gz
Temp
16 15 15 15 15 15 14 14 14 14 14 14 14 13 12 12 11 11 11 11 10 10 10 10 10 10 10 10 10 10 9 9 9 9 9 9 9 9 9 9 9 10
15 15 15 15 15 15 15 14 14 14 13 13 13 12 12 11 11 11 11 10 10 10 10 10 10 10 10 10 9 9 9 9 9 9 9 9 9 9 9 9 9 9
15 15 15 15 15 15 15 15 14 13 13 12 12 12 11 11 11 11 10 10 10 10 10 10 10 10 9 9 9 9 9 9 9 9 9 9 9 9 9 9 9 9
15 15 15 15 15 15 15 14 13 12 12 12 12 11 11 11 11 10 10 10 10 10 9 9 9 9 9 9 9 9 9 9 9 9 9 9 9 9 9 9 8 9
15 15 15 15 15 15 14 13 13 12 12 12 11 11 11 11 11 11 10 10 10 10 9 9 9 9 9 9 9 9 9 9 9 9 9 9 8 8 8 8 8 8
15 15 15 15 15 14 13 13 12 12 12 12 11 11 11 11 11 11 10 10 10 10 9 9 9 9 9 9 9 9 9 9 9 9 9 9 9 8 8 9 8 8
15 14 14 14 14 14 13 13 12 12 12 12 11 11 11 11 11 11 11 10 10 10 10 9 9 9 9 9 9 9 9 9 9 9 9 9 9 8 8 8 9 8
15 14 14 14 14 13 13 12 12 12 12 12 11 11 11 11 11 11 11 11 10 10 10 10 9 9 9 9 9 9 9 9 9 9 9 9 9 9 8 8 8 9
14 14 14 14 13 13 12 12 12 12 12 12 11 11 11 11 11 11 11 11 10 10 10 10 10 9 9 9 9 9 9 9 9 9 9 9 9 9 8 8 8 8
14 14 14 13 13 13 12 12 12 12 12 12 12 11 11 11 11 11 11 11 10 10 10 10 10 9 9 9 9 9 9 9 9 9 9 9 9 9 9 8 8 8
14 13 13 13 13 13 12 12 12 12 12 12 11 11 11 11 11 11 11 11 11 10 10 10 10 9 9 9 9 9 9 9 9 9 9 9 9 8 8 8 8 8
13 13 13 13 12 12 12 12 12 12 12 12 11 11 11 11 11 11 11 11 11 11 10 10 10 10 10 9 9 9 9 9 9 9 9 8 8 8 8 8 8 8
13 13 13 12 12 12 12 12 12 12 12 12 11 11 11 11 11 11 11 11 11 11 10 10 10 10 10 9 9 9 9 9 9 8 8 8 8 8 8 8 8 8
13 13 12 12 12 12 12 12 12 12 12 12 11 11 11 11 11 11 11 11 11 10 10 10 10 10 10 9 9 9 9 9 9 8 8 8 8 8 8 8 8 8
13 13 12 12 12 12 12 12 12 11 11 11 11 11 11 11 11 11 11 11 11 10 10 10 10 10 9 9 9 9 9 9 9 8 8 8 8 8 8 8 8 7
13 12 12 12 11 12 12 12 12 11 11 11 11 11 11 11 11 11 11 11 10 10 10 9 10 9 9 9 9 9 9 9 9 9 8 8 8 8 8 8 8 7
12 12 12 11 11 11 11 11 11 11 11 11 11 11 11 11 11 11 11 10 10 10 10 9 9 9 8 8 8 8 9 9 9 9 9 8 8 8 8 8 8 8
12 12 11 11 11 11 11 11 11 11 11 11 11 10 10 10 10 10 10 10 10 10 10 9 9 8 8 8 8 8 8 9 9 9 9 9 9 9 9 8 8 8
12 11 11 11 11 11 11 11 11 11 11 11 10 10 10 10 10 10 10 10 10 10 10 9 9 8 8 8 7 7 8 8 9 9 9 9 9 9 9 9 8 8
11 11 11 11 11 11 10 10 11 11 11 10 10 10 10 10 10 10 10 10 10 10 10 9 9 8 8 7 7 7 7 8 9 9 9 9 9 8 8 8 8 8
11 11 11 11 10 10 10 10 11 11 10 10 10 10 10 10 10 10 10 9 10 10 10 9 9 8 7 7 7 7 7 7 8 9 9 9 9 8 8 8 8 8
11 11 10 10 10 10 10 10 10 10 10 10 10 10 10 10 9 9 9 9 9 9 9 9 9 8 7 7 7 7 7 7 8 9 9 9 9 8 8 8 8 8
11 10 10 10 9 9 10 10 10 10 9 9 9 9 9 9 9 9 9 9 9 9 9 9 8 8 7 7 7 7 7 7 8 9 9 9 9 8 8 8 8 8
11 10 10 9 9 9 9 9 9 9 9 9 9 9 8 8 9 9 9 9 9 8 9 9 8 8 7 7 7 7 7 7 8 9 9 9 9 8 8 8 7 7
10 10 10 9 9 9 9 9 9 9 9 9 9 8 8 8 8 8 8 8 8 8 8 8 8 7 7 7 7 7 7 7 9 9 9 9 9 8 8 8 7 7
10 10 10 10 9 9 9 9 9 9 9 9 9 8 8 8 8 8 8 8 8 7 8 8 8 7 7 7 7 7 7 7 8 9 9 8 8 8 8 8 8 7

ECMWFNIL_925_temp_117.txt.gz
Temp
16 17 17 17 17 17 17 17 17 17 17 16 16 15 15 15 14 13 13 13 12 12 12 12 12 12 12 12 12 12 12 12 12 11 11 11 11 11 12 12 12 12
17 17 17 17 17 17 17 17 17 17 17 16 16 15 15 14 13 13 13 12 12 12 12 12 12 12 12 12 12 12 12 11 11 11 11 11 11 11 11 11 12 12
17 17 17 17 17 17 17 16 16 16 16 16 15 15 14 14 13 13 13 12 12 12 12 12 12 12 12 12 12 12 12 11 11 11 11 11 11 11 11 11 11 12
17 17 17 17 17 17 16 15 15 15 15 15 15 14 14 13 13 13 12 12 12 12 12 12 12 12 12 12 12 12 11 11 11 11 11 11 11 11 11 11 11 11
17 17 17 17 17 16 15 15 15 15 15 15 15 14 13 13 13 13 12 12 12 12 12 12 12 12 12 12 12 11 11 11 11 11 11 11 11 11 11 11 11 11
17 17 17 17 16 15 15 15 15 15 15 15 14 14 13 13 13 13 12 12 12 12 12 12 12 12 12 12 12 12 12 11 11 11 11 11 11 11 11 11 11 11
17 17 17 16 15 15 15 15 15 15 15 14 14 14 13 13 13 13 13 13 12 12 12 12 12 12 12 12 12 12 11 11 11 12 11 11 11 11 11 11 11 11
17 17 17 15 15 15 15 15 15 15 15 14 14 13 13 13 13 13 13 13 13 12 12 12 12 12 12 12 11 11 11 11 12 12 11 11 11 11 11 11 11 11
17 17 16 15 15 15 15 15 15 15 14 14 14 13 14 14 13 13 13 13 13 13 12 12 12 12 11 11 11 11 11 11 11 11 11 11 11 11 11 11 11 11
17 16 15 15 15 14 15 15 15 14 14 14 14 14 14 13 13 13 13 13 13 13 13 12 12 12 11 12 11 11 11 11 11 11 11 11 11 11 11 11 11 11
16 15 15 15 15 14 14 15 15 15 15 14 14 14 14 13 13 13 13 13 13 13 13 12 12 12 12 12 11 11 11 11 11 11 11 11 11 11 11 11 11 10
15 15 14 14 15 14 14 14 15 15 15 14 14 14 14 13 13 13 13 13 13 13 13 12 12 12 12 12 11 11 11 11 11 11 11 11 11 11 11 10 10 10
14 15 15 15 15 14 14 15 15 15 14 14 14 14 13 13 14 13 13 13 13 13 13 12 12 12 12 12 11 11 11 11 11 11 11 11 11 11 10 10 10 10
14 15 15 15 15 14 14 15 15 15 14 14 14 14 13 14 14 13 13 13 13 13 13 12 12 12 12 12 11 11 11 11 11 11 11 10 10 10 10 10 10 10
14 15 15 15 14 14 14 15 15 15 14 14 14 13 13 14 13 13 13 13 13 13 12 12 12 12 12 12 11 11 11 11 11 11 10 10 10 10 10 10 10 9
15 15 15 15 14 14 15 15 15 14 14 14 14 13 13 13 13 13 13 13 13 13 12 12 12 12 11 11 11 11 11 11 11 11 10 10 10 10 10 10 9 8
15 15 15 14 14 14 14 15 15 15 14 14 13 13 13 13 13 13 13 13 13 12 12 12 12 11 11 11 11 11 11 11 11 11 11 10 10 10 10 10 9 9
15 15 15 14 15 15 14 15 15 15 14 14 13 13 13 13 13 13 13 13 13 12 12 11 11 11 10 10 10 10 10 11 11 11 10 11 10 10 10 10 10 9
15 15 15 15 15 14 14 15 15 14 13 13 13 13 13 13 13 13 13 13 13 12 12 11 10 10 10 9 9 10 10 10 11 11 11 11 11 10 10 10 10 10
15 15 15 14 14 14 13 15 15 14 13 13 13 12 13 13 13 13 12 12 12 12 12 11 10 9 9 9 9 9 10 10 11 11 10 10 10 10 10 10 10 10
15 15 14 14 14 13 13 14 15 14 13 13 13 12 12 12 12 12 12 12 12 12 12 11 10 9 9 9 9 9 9 9 10 10 10 10 10 10 10 10 10 10
15 15 14 14 14 13 13 13 13 13 13 12 12 12 12 12 12 12 12 12 12 12 11 11 10 9 9 9 8 9 9 9 9 10 10 10 10 9 9 10 9 9
15 14 14 14 14 13 13 13 13 12 12 12 11 11 11 12 12 12 11 11 11 11 11 10 9 9 9 9 8 9 8 8 9 10 10 10 10 10 10 10 9 9
15 14 14 13 13 13 13 13 12 12 12 12 11 11 11 11 11 11 11 11 11 11 11 10 9 9 9 8 8 8 8 8 9 10 10 10 10 10 10 10 9 9
14 14 13 13 13 13 13 12 12 12 11 11 11 11 11 10 10 10 10 10 10 10 10 10 9 8 9 8 8 8 8 8 9 10 10 10 10 10 10 10 9 8
14 13 13 13 12 12 12 12 11 11 11 11 11 11 10 10 10 10 10 10 10 10 10 10 9 8 8 8 8 7 7 8 9 10 10 10 10 10 10 10 10 9

ECMWFNIL_925_temp_123.txt.gz
Temp
18 17 17 17 16 16 16 16 16 16 16 15 15 15 15 15 14 14 14 14 14 14 14 14 14 13 13 13 13 14 13 14 14 14 14 14 14 14 13 13 13 13
17 17 17 17 16 16 16 16 16 16 16 15 15 15 15 14 14 14 14 14 14 14 14 13 13 13 13 13 13 13 13 13 13 13 13 13 13 13 13 13 13 13
17 17 17 17 16 16 16 16 16 16 16 15 15 15 15 14 14 14 13 13 13 13 13 13 13 13 13 13 13 13 13 13 13 13 13 13 13 13 12 12 12 12
17 17 17 17 16 16 16 16 16 16 16 16 15 15 15 14 14 13 13 13 13 13 13 13 13 13 13 13 13 13 13 13 12 13 13 12 12 12 12 12 12 12
17 17 17 17 16 16 17 16 16 16 16 16 15 15 15 14 14 13 13 13 13 13 13 13 13 13 13 13 13 13 12 12 12 12 12 12 12 12 12 12 12 12
17 17 17 17 17 17 17 16 16 16 16 16 15 15 15 14 14 13 13 13 13 13 12 12 12 12 12 12 13 12 12 12 12 12 12 12 11 11 11 12 12 11
17 17 17 17 17 17 17 16 16 16 16 15 15 15 14 14 13 13 13 13 12 12 12 12 12 12 12 12 12 12 12 12 12 12 12 11 11 11 11 11 11 11
17 17 17 17 17 17 16 16 16 16 16 15 15 15 14 14 13 13 13 13 12 12 12 12 12 12 12 12 12 12 12 12 12 12 12 11 11 11 11 11 11 11
17 17 17 17 17 16 16 16 16 16 15 15 15 14 14 14 13 13 12 12 12 12 12 12 12 12 12 12 12 12 12 12 11 12 11 11 11 11 11 11 11 11
17 17 17 17 16 16 16 16 16 15 15 15 15 14 14 13 13 13 12 12 12 12 12 12 12 12 12 12 12 12 12 12 11 11 11 11 11 11 11 11 11 11
16 16 16 16 16 16 16 16 16 15 15 15 14 14 14 13 13 13 13 12 12 12 12 12 12 12 12 12 12 12 12 12 11 11 11 11 11 11 11 11 11 11
16 16 16 16 16 16 16 16 15 15 15 15 14 14 14 13 13 13 13 13 12 12 12 12 12 12 12 12 12 12 12 12 11 11 11 11 11 11 11 11 11 11
16 16 16 16 16 16 15 15 15 15 15 14 14 14 14 13 13 13 13 13 12 12 12 12 12 12 12 12 12 12 12 12 11 11 11 11 11 11 11 11 10 10
16 16 16 16 16 15 15 15 15 15 14 14 14 14 14 13 13 13 13 13 13 12 12 12 12 12 12 12 12 12 12 12 11 11 11 11 11 11 11 10 10 10
16 16 16 16 16 15 15 15 15 15 15 14 14 14 14 14 13 13 13 13 13 13 12 12 12 12 12 12 12 12 12 11 11 11 11 11 11 10 10 10 10 10
16 16 16 16 16 15 15 15 15 15 15 14 14 14 14 14 13 13 13 13 13 13 12 12 12 12 12 12 12 12 12 11 11 11 11 11 10 10 10 10 10 10
16 16 16 15 15 15 15 15 15 15 15 14 14 14 14 14 14 14 13 13 13 13 12 12 12 12 12 12 12 12 11 11 11 11 11 11 10 10 10 10 10 10
16 16 15 15 15 15 15 15 15 15 15 14 14 14 14 14 14 14 14 13 13 13 12 12 12 12 12 12 11 11 11 11 11 11 11 10 10 10 10 10 10 10
16 15 15 15 15 15 15 15 15 15 15 15 14 14 14 14 14 14 14 13 13 13 12 12 12 12 12 11 11 11 11 11 11 11 10 10 10 10 10 10 10 10
15 15 15 15 15 15 15 15 15 15 15 14 14 14 14 14 14 14 14 13 13 13 12 12 12 12 12 11 11 11 11 11 11 10 10 10 10 10 10 10 10 10
15 15 15 15 15 15 15 15 15 15 15 14 14 14 14 14 14 14 13 13 13 13 12 12 12 11 11 11 11 11 11 11 11 11 10 10 10 10 10 10 10 9
15 15 15 15 15 15 15 15 15 14 14 14 14 14 14 14 14 14 13 13 13 12 12 12 11 11 11 11 11 11 10 10 10 10 10 10 10 10 10 10 10 9
15 15 15 15 15 15 15 15 14 14 14 14 14 14 14 14 14 13 13 13 12 12 12 11 11 11 11 11 11 10 9 9 10 10 11 11 10 10 10 10 10 9
15 15 15 15 15 15 15 15 14 14 14 14 14 14 14 13 13 13 13 13 12 12 12 11 11 11 11 11 11 10 10 10 10 10 11 11 10 10 10 10 10 10
15 15 15 15 15 15 15 15 14 14 14 14 14 14 13 13 13 13 13 13 12 12 12 11 11 11 10 11 11 10 10 10 10 10 10 10 10 10 10 10 10 10
15 15 15 15 15 15 15 15 14 14 14 14 14 13 13 13 13 13 13 12 12 12 11 11 11 11 10 10 10 10 10 10 10 10 10 10 10 10 10 10 10 9